Location: New Plymouth
(39.0670°S, 174.0830°E)
Time: 23:23:47
(UTC+12:00)

ISS - Visible Passes

Search period start: 14 May 2021 00:00
Search period end: 24 May 2021 00:00
Orbit: 417 x 422 km, 51.6° (Epoch: 14 May)

Date Brightness Start Highest point End Pass type
(mag) Time Alt. Az. Time Alt. Az. Time Alt. Az.
19 May -0.4 06:27:00 10° NNE 06:28:54 14° NE 06:30:48 10° E visible
21 May -2.4 06:27:13 10° NNW 06:30:28 43° NE 06:33:45 10° ESE visible
22 May -1.4 05:40:16 10° N 05:43:06 24° NE 05:45:59 10° ESE visible
23 May -0.7 04:55:41 14° NE 04:55:48 14° NE 04:57:44 10° E visible
23 May -3.7 06:28:52 10° WNW 06:32:15 60° SW 06:35:41 10° SE visible
